Stündliche Wetter Abartzuza

Heute, 21 Juni, Montag

Zeit Temperatur Niederschläge Wind Luftdruck Luftfeuchtigkeit
00:00 +15°C° 0 mm 1 m/S 705 mmHg 67%
01:00 +14°C° 0 mm 1 m/S 705 mmHg 69%
02:00 +14°C° 0 mm 1 m/S 704 mmHg 71%
03:00 +13°C° 0 mm 1 m/S 704 mmHg 73%
04:00 +14°C° 0 mm 1 m/S 704 mmHg 72%
05:00 +14°C° 0 mm 1 m/S 705 mmHg 71%
06:00 +15°C° 0 mm 1 m/S 705 mmHg 71%
07:00 +16°C° 0 mm 2 m/S 705 mmHg 63%
08:00 +17°C° 0 mm 3 m/S 706 mmHg 55%
09:00 +19°C° 0 mm 4 m/S 706 mmHg 47%
10:00 +20°C° 0 mm 4 m/S 706 mmHg 45%
11:00 +20°C° 0 mm 4 m/S 706 mmHg 43%
12:00 +21°C° 0 mm 3 m/S 706 mmHg 41%
13:00 +20°C° 0.2 mm 4 m/S 706 mmHg 46%
14:00 +20°C° 0.2 mm 4 m/S 706 mmHg 52%
15:00 +19°C° 0.2 mm 4 m/S 706 mmHg 57%
16:00 +19°C° 0.3 mm 4 m/S 706 mmHg 60%
17:00 +18°C° 0.3 mm 3 m/S 706 mmHg 63%
18:00 +18°C° 0.3 mm 3 m/S 707 mmHg 66%
19:00 +16°C° 0.2 mm 3 m/S 707 mmHg 73%
20:00 +15°C° 0.2 mm 2 m/S 707 mmHg 80%
21:00 +13°C° 0.2 mm 2 m/S 708 mmHg 87%
22:00 +13°C° 0 mm 2 m/S 708 mmHg 88%
23:00 +12°C° 0 mm 1 m/S 708 mmHg 88%

Morgen, 22 Juni, Dienstag

Zeit Temperatur Niederschläge Wind Luftdruck Luftfeuchtigkeit
00:00 +12°C° 0 mm 1 m/S 708 mmHg 89%
01:00 +11°C° 0 mm 1 m/S 708 mmHg 89%
02:00 +11°C° 0 mm 1 m/S 708 mmHg 88%
03:00 +11°C° 0 mm 1 m/S 708 mmHg 88%
04:00 +11°C° 0 mm 1 m/S 708 mmHg 86%
05:00 +12°C° 0 mm 1 m/S 709 mmHg 85%
06:00 +12°C° 0 mm 1 m/S 709 mmHg 83%
07:00 +14°C° 0 mm 1 m/S 709 mmHg 76%
08:00 +16°C° 0 mm 1 m/S 709 mmHg 69%
09:00 +18°C° 0 mm 2 m/S 710 mmHg 61%
10:00 +19°C° 0 mm 2 m/S 710 mmHg 58%
11:00 +20°C° 0 mm 2 m/S 710 mmHg 54%
12:00 +21°C° 0 mm 3 m/S 710 mmHg 51%
13:00 +21°C° 0.2 mm 3 m/S 710 mmHg 52%
14:00 +21°C° 0.2 mm 3 m/S 710 mmHg 54%
15:00 +21°C° 0.2 mm 3 m/S 710 mmHg 56%
16:00 +19°C° 0.9 mm 3 m/S 710 mmHg 67%
17:00 +16°C° 0.9 mm 3 m/S 710 mmHg 77%
18:00 +13°C° 0.9 mm 3 m/S 711 mmHg 88%
19:00 +13°C° 1 mm 3 m/S 711 mmHg 90%
20:00 +13°C° 1 mm 2 m/S 711 mmHg 91%
21:00 +13°C° 1 mm 2 m/S 712 mmHg 93%
22:00 +13°C° 0.4 mm 2 m/S 712 mmHg 92%
23:00 +13°C° 0.4 mm 2 m/S 712 mmHg 92%

übermorgen, 23 Juni, Mittwoch

Zeit Temperatur Niederschläge Wind Luftdruck Luftfeuchtigkeit
00:00 +13°C° 0.4 mm 2 m/S 712 mmHg 92%
01:00 +12°C° 0 mm 2 m/S 711 mmHg 92%
02:00 +12°C° 0 mm 2 m/S 711 mmHg 92%
03:00 +12°C° 0 mm 2 m/S 711 mmHg 93%
04:00 +12°C° 0 mm 2 m/S 711 mmHg 92%
05:00 +12°C° 0 mm 2 m/S 711 mmHg 90%
06:00 +13°C° 0 mm 2 m/S 711 mmHg 89%
07:00 +13°C° 0 mm 2 m/S 711 mmHg 85%
08:00 +14°C° 0 mm 2 m/S 712 mmHg 81%
09:00 +15°C° 0 mm 2 m/S 712 mmHg 77%
10:00 +16°C° 0.1 mm 2 m/S 712 mmHg 71%
11:00 +17°C° 0.1 mm 2 m/S 712 mmHg 65%
12:00 +19°C° 0.1 mm 1 m/S 712 mmHg 59%
13:00 +19°C° 0.2 mm 2 m/S 712 mmHg 60%
14:00 +19°C° 0.2 mm 2 m/S 712 mmHg 61%
15:00 +19°C° 0.2 mm 2 m/S 711 mmHg 62%
16:00 +18°C° 0.3 mm 2 m/S 712 mmHg 67%
17:00 +17°C° 0.3 mm 2 m/S 712 mmHg 73%
18:00 +17°C° 0.3 mm 2 m/S 712 mmHg 78%
19:00 +15°C° 0.1 mm 2 m/S 712 mmHg 82%
20:00 +14°C° 0.1 mm 2 m/S 713 mmHg 87%
21:00 +13°C° 0.1 mm 2 m/S 713 mmHg 91%
22:00 +13°C° 0.1 mm 2 m/S 713 mmHg 92%
23:00 +13°C° 0.1 mm 2 m/S 713 mmHg 93%

24 Juni, Donnerstag

Zeit Temperatur Niederschläge Wind Luftdruck Luftfeuchtigkeit
00:00 +12°C° 0.1 mm 2 m/S 713 mmHg 94%
01:00 +13°C° 0.1 mm 2 m/S 713 mmHg 93%
02:00 +13°C° 0.1 mm 2 m/S 713 mmHg 93%
03:00 +13°C° 0.1 mm 2 m/S 713 mmHg 92%
04:00 +13°C° 0 mm 2 m/S 713 mmHg 92%
05:00 +13°C° 0 mm 2 m/S 713 mmHg 91%
06:00 +13°C° 0 mm 2 m/S 714 mmHg 91%
07:00 +14°C° 0 mm 2 m/S 714 mmHg 85%
08:00 +15°C° 0 mm 2 m/S 714 mmHg 79%
09:00 +16°C° 0 mm 2 m/S 714 mmHg 73%
10:00 +18°C° 0.1 mm 2 m/S 714 mmHg 68%
11:00 +19°C° 0.1 mm 2 m/S 714 mmHg 64%
12:00 +20°C° 0.1 mm 2 m/S 714 mmHg 59%
13:00 +20°C° 0 mm 3 m/S 714 mmHg 58%
14:00 +20°C° 0 mm 3 m/S 714 mmHg 58%
15:00 +20°C° 0 mm 3 m/S 714 mmHg 58%
16:00 +19°C° 0 mm 3 m/S 714 mmHg 61%
17:00 +19°C° 0 mm 4 m/S 714 mmHg 64%
18:00 +18°C° 0 mm 4 m/S 714 mmHg 67%
19:00 +16°C° 0 mm 3 m/S 714 mmHg 74%
20:00 +14°C° 0 mm 3 m/S 714 mmHg 81%
21:00 +13°C° 0 mm 2 m/S 715 mmHg 89%
22:00 +12°C° 0 mm 2 m/S 714 mmHg 90%
23:00 +12°C° 0 mm 2 m/S 714 mmHg 91%

25 Juni, Freitag

Zeit Temperatur Niederschläge Wind Luftdruck Luftfeuchtigkeit
00:00 +10°C° 0 mm 2 m/S 714 mmHg 93%
01:00 +10°C° 0 mm 2 m/S 714 mmHg 93%
02:00 +10°C° 0 mm 2 m/S 714 mmHg 93%
03:00 +9°C° 0 mm 2 m/S 714 mmHg 94%
04:00 +10°C° 0 mm 2 m/S 714 mmHg 91%
05:00 +10°C° 0 mm 2 m/S 714 mmHg 89%
06:00 +12°C° 0 mm 1 m/S 714 mmHg 87%
07:00 +14°C° 0 mm 2 m/S 714 mmHg 77%
08:00 +16°C° 0 mm 2 m/S 714 mmHg 67%
09:00 +18°C° 0 mm 2 m/S 714 mmHg 58%
10:00 +21°C° 0 mm 1 m/S 714 mmHg 53%
11:00 +23°C° 0 mm 1 m/S 714 mmHg 48%
12:00 +25°C° 0 mm 1 m/S 714 mmHg 44%
13:00 +25°C° 0 mm 1 m/S 714 mmHg 42%
14:00 +26°C° 0 mm 2 m/S 714 mmHg 41%
15:00 +27°C° 0 mm 2 m/S 713 mmHg 39%
16:00 +26°C° 0 mm 2 m/S 713 mmHg 44%
17:00 +25°C° 0 mm 3 m/S 713 mmHg 49%
18:00 +24°C° 0 mm 3 m/S 713 mmHg 54%
19:00 +21°C° 0 mm 3 m/S 713 mmHg 64%
20:00 +18°C° 0 mm 2 m/S 713 mmHg 74%
21:00 +16°C° 0 mm 2 m/S 713 mmHg 84%
22:00 +15°C° 0 mm 2 m/S 713 mmHg 85%
23:00 +15°C° 0 mm 2 m/S 713 mmHg 86%

26 Juni, Samstag

Zeit Temperatur Niederschläge Wind Luftdruck Luftfeuchtigkeit
00:00 +14°C° 0 mm 2 m/S 713 mmHg 87%
01:00 +14°C° 0 mm 1 m/S 713 mmHg 86%
02:00 +14°C° 0 mm 1 m/S 713 mmHg 86%
03:00 +14°C° 0 mm 1 m/S 713 mmHg 85%
04:00 +15°C° 0 mm 1 m/S 713 mmHg 82%
05:00 +16°C° 0 mm 1 m/S 713 mmHg 78%
06:00 +16°C° 0 mm 0 m/S 713 mmHg 75%
07:00 +20°C° 0 mm 1 m/S 713 mmHg 67%
08:00 +22°C° 0 mm 1 m/S 713 mmHg 59%
09:00 +24°C° 0 mm 1 m/S 713 mmHg 51%
10:00 +26°C° 0 mm 1 m/S 713 mmHg 48%
11:00 +28°C° 0 mm 1 m/S 713 mmHg 44%
12:00 +30°C° 0 mm 1 m/S 713 mmHg 40%
13:00 +30°C° 0 mm 1 m/S 713 mmHg 39%
14:00 +31°C° 0 mm 1 m/S 713 mmHg 37%
15:00 +31°C° 0 mm 2 m/S 713 mmHg 35%
16:00 +30°C° 0 mm 2 m/S 712 mmHg 41%
17:00 +29°C° 0 mm 2 m/S 712 mmHg 47%
18:00 +28°C° 0 mm 3 m/S 712 mmHg 53%
19:00 +26°C° 0 mm 2 m/S 712 mmHg 62%
20:00 +23°C° 0 mm 2 m/S 712 mmHg 72%
21:00 +20°C° 0 mm 2 m/S 713 mmHg 81%
22:00 +19°C° 0 mm 2 m/S 713 mmHg 82%
23:00 +20°C° 0 mm 1 m/S 712 mmHg 82%
Mehr zeigen

Wir brauchen deine Erlaubnis

Meteoprog und unser Service Anbieter werden persönliche Daten aufbewahren, so wie Cookies, Geräte Bezeichnung oder ähnliche Technologien von deinem Gerät und Prozess, so wie Persönliche Daten Inhalte und Werbungen, genauso wie social Media und den Verkehr zu analysieren.

  • Aufbewahrung und/oder Zugang zu deiner Geräte Informationen.

    Cookies, Geräte Bezeichnung oder andere Informationen, können aufbewahrt oder Zugang zu deinem Gerät erhalten, für den Grund, der oben angegeben wird.

  • Personalisierte Werbung und Inhalte, Messungen, Einblick in das Publikum und Produkt Entwicklung.

    Werbungen und Inhalte können personalisiert werden, basierend auf ein Profil. Mehr Daten können besser personalisierte Werbungen und Inhalte hinzufügen. Werbung und Inhalte können gezeigt und gemessen werden. Einblicke über das Publikum, welche die Werbung gesehen haben und den Inhalt, können abgeleitet werden. So wie Daten können genutzt werden, um es zu verbessern oder die Benutzer Erfahrung zu verbessern das System und die Software.

Wenn du “Ich stimme zu” klickst, erlaubst du uns, die Cookies zu benutzen die Geräte Bezeichnung, den Web oder ähnliche Technologien zu benutzen. Deine Settings, können in deinem Gerät bei deinem Browser geändert werden.

Für den bestimmten Zweck, berechtigten Interessen beruhen darauf, mehr als auf den Inhalt. Du kannst mehr darüber in unseren Privaten und Cookie Politik lesen.